Weather History for KUES - March, 2014

Change the Weather History Date:

Sunday, March 23, 2014

  Actual Average Record
Temperature  
Mean Temperature 19 °F -  
Max Temperature 26 °F 45 °F 65 °F (1963)
Min Temperature 12 °F 27 °F 8 °F (1974)
Degree Days  
Heating Degree Days 46    
Moisture  
Dew Point 7 °F    
Average Humidity 61    
Maximum Humidity 73    
Minimum Humidity 46    
Precipitation  
Precipitation 0.00 in - - ()
Sea Level Pressure  
Sea Level Pressure 30.38 in    
Wind  
Wind Speed 8 mph (NW)    
Max Wind Speed 12 mph    
Max Gust Speed 16 mph    
Visibility 10 miles    
Events      
Averages and records for this station are not official NWS values.
T = Trace of Precipitation, MM = Missing Value Source: NWS Daily Summary

Daily Weather History Graph

Daily Weather History Graph

Search for Another Location

Airport or City:

Trip Planner

Search our weather history database for the weather conditions in past years. The results will help you decide how hot, cold, wet, or windy it might be!

Date:

Astronomy

Mar. 23, 2014 Rise Set
Actual Time 6:50 AM CDT 7:08 PM CDT
Civil Twilight 6:22 AM CDT 7:37 PM CDT
Nautical Twilight 5:49 AM CDT 8:10 PM CDT
Astronomical Twilight 5:15 AM CDT 8:44 PM CDT
Moon 1:32 AM CDT (3/23) 11:24 AM CDT (3/23)
Length of Visible Light 13h 14m
Length of Day
12h 17m
Waning Gibbous, 54% of the Moon is Illuminated
Mar 23
Waning Gibbous
Mar 23
Last Quarter
Mar 30
New
Apr 7
First Quarter
Apr 15
Full

Hourly Weather History & Observations

Time (CDT) Temp. Windchill Dew Point Humidity Pressure Visibility Wind Dir Wind Speed Gust Speed Precip Events Conditions
12:15 AM 19.4 °F 7.9 °F 8.6 °F 63% 30.35 in 10.0 mi NW 10.4 mph - N/A   Clear
12:35 AM 19.4 °F 7.2 °F 8.6 °F 63% 30.35 in 10.0 mi NW 11.5 mph 16.1 mph N/A   Clear
12:55 AM 19.4 °F 8.6 °F 8.6 °F 63% 30.36 in 10.0 mi NW 9.2 mph - N/A   Clear
1:15 AM 19.4 °F 8.6 °F 8.6 °F 63% 30.36 in 10.0 mi NW 9.2 mph - N/A   Clear
1:35 AM 19.4 °F 9.5 °F 8.6 °F 63% 30.36 in 10.0 mi NW 8.1 mph - N/A   Clear
1:55 AM 19.4 °F 9.5 °F 8.6 °F 63% 30.37 in 10.0 mi NW 8.1 mph - N/A   Clear
2:15 AM 17.6 °F 9.3 °F 8.6 °F 68% 30.37 in 10.0 mi NW 5.8 mph - N/A   Clear
2:35 AM 17.6 °F 6.4 °F 8.6 °F 68% 30.37 in 10.0 mi NNW 9.2 mph - N/A   Clear
2:55 AM 17.6 °F 5.7 °F 8.6 °F 68% 30.38 in 10.0 mi North 10.4 mph - N/A   Clear
3:15 AM 17.6 °F 7.3 °F 6.8 °F 63% 30.38 in 10.0 mi NW 8.1 mph - N/A   Clear
3:35 AM 17.6 °F 6.4 °F 6.8 °F 63% 30.38 in 10.0 mi NNW 9.2 mph - N/A   Clear
3:55 AM 17.6 °F 9.3 °F 6.8 °F 63% 30.39 in 10.0 mi NNW 5.8 mph - N/A   Clear
4:15 AM 15.8 °F 6.1 °F 8.6 °F 73% 30.39 in 10.0 mi NNW 6.9 mph - N/A   Clear
4:35 AM 15.8 °F 5.1 °F 6.8 °F 68% 30.40 in 10.0 mi NNW 8.1 mph - N/A   Clear
4:55 AM 14.0 °F 2.0 °F 6.8 °F 73% 30.40 in 10.0 mi NNW 9.2 mph - N/A   Clear
5:15 AM 14.0 °F 1.2 °F 5.0 °F 67% 30.40 in 10.0 mi NNW 10.4 mph - N/A   Clear
5:35 AM 14.0 °F 2.9 °F 5.0 °F 67% 30.41 in 10.0 mi NNW 8.1 mph - N/A   Clear
5:45 AM 12.2 °F -1.0 °F 3.2 °F 67% 30.42 in 10.0 mi NW 10.4 mph - N/A   Clear
6:45 AM 12.2 °F -1.0 °F 3.2 °F 67% 30.42 in 10.0 mi NW 10.4 mph - N/A   Clear
7:45 AM 12.2 °F -1.0 °F 3.2 °F 67% 30.42 in 10.0 mi NW 10.4 mph - N/A   Clear
8:45 AM 15.8 °F 3.4 °F 3.2 °F 58% 30.43 in 10.0 mi NW 10.4 mph - N/A   Clear
9:45 AM 15.8 °F 3.4 °F 3.2 °F 58% 30.43 in 10.0 mi NW 10.4 mph - N/A   Clear
10:45 AM 19.4 °F 8.6 °F 5.0 °F 54% 30.44 in 10.0 mi WNW 9.2 mph - N/A   Scattered Clouds
11:45 AM 19.4 °F 7.2 °F 3.2 °F 49% 30.43 in 10.0 mi NW 11.5 mph - N/A   Scattered Clouds
12:45 PM 21.2 °F 10.1 °F 6.8 °F 54% 30.41 in 10.0 mi West 10.4 mph - N/A   Scattered Clouds
1:45 PM 23.0 °F 14.7 °F 5.0 °F 46% 30.38 in 10.0 mi West 6.9 mph - N/A   Scattered Clouds
2:45 PM 26.6 °F 19.1 °F 8.6 °F 47% 30.37 in 10.0 mi NW 6.9 mph - N/A   Mostly Cloudy
3:45 PM 24.8 °F 15.3 °F 6.8 °F 46% 30.35 in 10.0 mi WNW 9.2 mph - N/A   Mostly Cloudy
4:45 PM 23.0 °F 13.1 °F 6.8 °F 50% 30.35 in 10.0 mi West 9.2 mph - N/A   Mostly Cloudy
5:45 PM 24.8 °F 15.3 °F 6.8 °F 46% 30.35 in 10.0 mi West 9.2 mph - N/A   Mostly Cloudy
6:45 PM 23.0 °F 13.1 °F 6.8 °F 50% 30.35 in 10.0 mi West 9.2 mph - N/A   Scattered Clouds
7:45 PM 21.2 °F 10.9 °F 6.8 °F 54% 30.34 in 10.0 mi West 9.2 mph - N/A   Clear
8:45 PM 19.4 °F 8.6 °F 6.8 °F 58% 30.34 in 10.0 mi West 9.2 mph - N/A   Clear
9:15 PM 19.4 °F - 8.6 °F 63% 30.34 in 10.0 mi Calm Calm - N/A   Clear
9:35 PM 19.4 °F - 8.6 °F 63% 30.34 in 10.0 mi Calm Calm - N/A   Clear
9:55 PM 19.4 °F - 8.6 °F 63% 30.34 in 10.0 mi Calm Calm - N/A   Clear
10:15 PM 17.6 °F - 8.6 °F 68% 30.34 in 10.0 mi Calm Calm - N/A   Clear
10:35 PM 19.4 °F - 8.6 °F 63% 30.35 in 10.0 mi Calm Calm - N/A   Clear
10:55 PM 17.6 °F - 8.6 °F 68% 30.35 in 10.0 mi Calm Calm - N/A   Clear
11:15 PM 17.6 °F 12.3 °F 8.6 °F 68% 30.35 in 10.0 mi WNW 3.5 mph - N/A   Clear
11:35 PM 19.4 °F - 8.6 °F 63% 30.35 in 10.0 mi Calm Calm - N/A   Clear
11:55 PM 17.6 °F - 8.6 °F 68% 30.35 in 10.0 mi Calm Calm - N/A   Clear